FW6403 Weather Reports


time (UTC)temp
C
wind
direction
speed
KPH
gust
KPH
rain 1hr
cm
rain 24hr
cm
rain mn
cm
humidity
%
barometer
mb
20260505041603 15 0 0.0 1.6 0.00 0.00 0.00 73 1013.0
20260505040058 15 0 0.0 1.6 0.00 0.00 0.00 71 1013.0
20260505034555 15 0 0.0 4.8 0.00 0.00 0.00 71 1013.1
20260505033056 15 360 0.0 3.2 0.00 0.00 0.00 70 1013.1
20260505031555 16 0 0.0 1.6 0.00 0.00 0.00 71 1013.3
20260505030126 16 0 0.0 3.2 0.00 0.00 0.00 71 1013.2
20260505024559 16 0 0.0 0.0 0.00 0.00 0.00 70 1013.4
20260505023056 16 0 0.0 0.0 0.00 0.00 0.00 69 1013.5
20260505021556 16 0 0.0 3.2 0.00 0.00 0.00 70 1013.7
20260505020100 16 0 0.0 3.2 0.00 0.00 0.00 70 1013.8
20260505014610 16 0 0.0 3.2 0.00 0.00 0.00 70 1013.9
20260505013056 16 0 0.0 1.6 0.00 0.00 0.00 70 1013.9
20260505011559 16 0 0.0 1.6 0.00 0.00 0.00 69 1013.9
20260505010103 16 360 0.0 3.2 0.00 0.00 0.00 69 1014.2
20260505004559 16 0 0.0 6.4 0.00 0.00 0.00 68 1014.3
20260505003117 16 0 0.0 6.4 0.00 0.00 0.00 68 1014.6
20260505001606 16 360 0.0 4.8 0.00 0.00 0.00 68 1014.7
20260505000108 16 0 0.0 4.8 0.00 0.00 0.00 67 1015.0
20260504234601 16 360 0.0 4.8 0.00 0.00 0.00 67 1015.0
20260504233059 16 0 0.0 4.8 0.00 0.00 0.00 66 1015.1
20260504231559 16 0 0.0 4.8 0.00 0.00 0.00 66 1015.4
20260504230057 16 0 0.0 6.4 0.00 0.00 0.00 66 1015.6
20260504224600 16 360 0.0 6.4 0.00 0.00 0.00 67 1015.7
20260504223120 16 360 0.0 9.7 0.00 0.00 0.00 68 1015.5
20260504221600 16 360 0.0 3.2 0.00 0.00 0.00 68 1015.6
20260504220059 16 0 0.0 1.6 0.00 0.00 0.00 66 1015.7
20260504214557 16 360 0.0 4.8 0.00 0.00 0.00 64 1015.6
20260504213106 16 0 0.0 0.0 0.00 0.00 0.00 62 1015.8
20260504211651 17 0 0.0 3.2 0.00 0.00 0.00 60 1015.7
20260504210058 17 360 0.0 4.8 0.00 0.00 0.00 59 1015.6
20260504204558 17 0 0.0 3.2 0.00 0.00 0.00 57 1015.7
20260504203108 18 0 0.0 1.6 0.00 0.00 0.00 55 1015.8
20260504201611 18 0 0.0 1.6 0.00 0.00 0.00 53 1015.6
20260504200057 18 0 0.0 3.2 0.00 0.00 0.00 52 1015.5
20260504194558 20 0 0.0 1.6 0.00 0.00 0.00 51 1015.3
20260504193107 20 0 0.0 3.2 0.00 0.00 0.00 48 1015.2
20260504191611 21 0 0.0 3.2 0.00 0.00 0.00 47 1015.1
20260504190108 21 360 0.0 1.6 0.00 0.00 0.00 48 1014.9
20260504184559 21 0 0.0 1.6 0.00 0.00 0.00 48 1014.8
20260504183100 22 0 0.0 0.0 0.00 0.00 0.00 46 1014.8
20260504181603 23 0 0.0 0.0 0.00 0.00 0.00 43 1014.7
20260504180059 24 104 0.0 4.8 0.00 0.00 0.00 42 1014.7
20260504174557 25 0 0.0 0.0 0.00 0.00 0.00 40 1014.6
20260504173057 25 0 0.0 1.6 0.00 0.00 0.00 41 1014.8
20260504171556 25 0 0.0 3.2 0.00 0.00 0.00 40 1014.7
20260504130104 26 198 0.0 6.4 0.00 0.00 0.00 31 1016.3
20260504120104 25 360 0.0 3.2 0.00 0.00 0.00 32 1016.7
20260504081609 21 0 0.0 6.4 0.00 0.00 0.00 53 1018.0